Regional Weather Roundup
Issued by NWS

Home | Current Version | Previous Version | Graphics & Text | Print | Product List | Glossary On
Versions: 1 2 3 4 5 6 7 8 9 10 11 12 13 14 15 16 17 18 19 20 21 22 23 24 25 26 27 28 29 30 31 32 33 34 35 36 37 38 39 40 41 42 43 44 45 46 47 48 49 50
000
ASUS45 KPSR 042100
RWRAZ

ARIZONA HOURLY REGIONAL WEATHER ROUNDUP
NATIONAL WEATHER SERVICE PHOENIX AZ
200 PM MST FRI SEP 04 2015

NOTE: FAIR INDICATES FEW OR NO CLOUDS BELOW 12,000 FEET WITH NO
SIGNIFICANT WEATHER AND/OR OBSTRUCTIONS TO VISIBILITY.

AZZ001>003-036-042200-
NORTHWEST ARIZONA

CITY           SKY/WX    TMP DP  RH WIND       PRES   REMARKS
KINGMAN        FAIR      90  43  19 SW22G33   29.91S
$$

AZZ004>008-015-016-018-042200-
NORTH CENTRAL ARIZONA

CITY           SKY/WX    TMP DP  RH WIND       PRES   REMARKS
GRAND CANYON   PTSUNNY   75  44  33 SW18G30   30.12F
WILLIAMS       FAIR      75  46  35 S14G21    30.18F
PRESCOTT       PTSUNNY   79  48  33 SW16      30.04F
FLAGSTAFF      NOT AVBL
PAYSON         FAIR      79  54  41 S12       30.07F
PAGE           FAIR      87  38  17 VRB3      29.91F
$$

AZZ009>014-017-042200-
NORTHEAST ARIZONA

CITY           SKY/WX    TMP DP  RH WIND       PRES   REMARKS
WINSLOW        TSTM      68  55  64 SW8G31    30.04R VSB 3/4
SAINT JOHNS    FAIR      76  53  44 S9        30.08F
WINDOW ROCK    LGT RAIN  66  57  72 W6        30.15F
SHOW LOW       PTSUNNY   68  50  52 S10       30.14F
$$

AZZ023-042200-
GREATER PHOENIX AREA

CITY           SKY/WX    TMP DP  RH WIND       PRES   REMARKS
PHOENIX        PTSUNNY   95  61  32 SE12      29.80F
GLENDALE       PTSUNNY   95  59  30 E7        29.81F
DEER VALLEY    FAIR      91  58  32 SW7G17    29.82F
SCOTTSDALE     FAIR      92  59  33 VRB6      29.84F
MESA-FALCON    MOSUNNY   93  57  29 S12       29.82F
MESA-GATEWAY   PTSUNNY   91  61  35 E9        29.85F
CHANDLER       MOSUNNY   91  61  35 S9        29.82F
$$

AZZ027-028-042200-
SOUTHWEST MARICOPA COUNTY AND PINAL COUNTY

CITY           SKY/WX    TMP DP  RH WIND       PRES   REMARKS
CASA GRANDE    FAIR      90  63  40 S9        29.84S
GILA BEND      FAIR      98  55  23 VRB7      29.75F
$$

AZZ503-504-507>509-042200-
SOUTHEAST ARIZONA

CITY           SKY/WX    TMP DP  RH WIND       PRES   REMARKS
TUCSON         FAIR      82  61  48 CALM      29.96S
DAVIS-MONTHAN  FAIR      82  60  47 CALM      29.94S
RYAN FIELD     SUNNY     84  63  48 SE7       29.94F
NOGALES        LGT RAIN  76  63  64 S6        30.03S
SIERRA VISTA   CLOUDY    69  63  80 SE8       30.10S
SAFFORD        FAIR      81  59  47 SE6       29.97F
$$

AZZ020-021-025-026-031-042200-
SOUTHWEST ARIZONA

CITY           SKY/WX    TMP DP  RH WIND       PRES   REMARKS
YUMA           NOT AVBL
$$

CAZ031-033-041-043-047-048-061-042200-
SOUTHERN CALIFORNIA

CITY           SKY/WX    TMP DP  RH WIND       PRES   REMARKS
DOWNTOWN L.A.  FAIR      77  57  50 CALM      29.85F
L.A. AIRPORT   FAIR      74  58  57 W13       29.87F
SAN DIEGO      FAIR      75  57  53 W12G18    29.89F
BURBANK        FAIR      79  56  45 S6G18     29.85F
ONTARIO        FAIR      79  52  38 VRB7      29.86F
RIVERSIDE      FAIR      81  54  39 VRB6      29.85F
PALM SPRINGS   FAIR      94  54  25 VRB7      29.75F
EL CENTRO NAS  FAIR      99  56  23 VRB3      29.70F
IMPERIAL       FAIR      99  58  25 VRB6      29.68F
BLYTHE         FAIR      98  58  26 S15G24    29.72F
$$

NVZ020-UTZ003-042200-
SOUTHERN NEVADA-UTAH

CITY           SKY/WX    TMP DP  RH WIND       PRES   REMARKS
LAS VEGAS      NOT AVBL
SALT LAKE CITY FAIR      87  35  15 S28G37    29.77F
$$

NMZ009-TXZ055-042200-
NEW MEXICO-WEST TEXAS

CITY           SKY/WX    TMP DP  RH WIND       PRES   REMARKS
ALBUQUERQUE    LGT RAIN  68  58  70 S14       30.16R
EL PASO        PTSUNNY   89  51  27 NW8       29.99F
$$


........................KEY........................
SKY/WX - SKY CONDITION/WEATHER
TMP    - TEMPERATURE IN FAHRENHEIT
DP     - DEW POINT IN FAHRENHEIT
RH     - RELATIVE HUMIDITY IN PERCENT
WIND   - DIRECTION AND SPEED IN MILES PER HOUR (MPH)
VRB    - VARIABLE WIND DIRECTION
PRES   - MEAN SEA LEVEL PRESSURE IN INCHES OF MERCURY
         F - FALLING PRESSURE   R - RISING PRESSURE
         S - STEADY PRESSURE
VSB    - VISIBILITY IN MILES
HX     - HEAT INDEX IN FAHRENHEIT
WCI    - WIND CHILL INDEX IN FAHRENHEIT
TC     - TEMPERATURE IN CELSIUS WHICH IS ALSO KNOWN AS
         TEMPERATURE IN CENTIGRADE
AFB    - AIR FORCE BASE
         LUKE AFB IS LUKE AIR FORCE BASE
         DAVIS-MONTHAN IS DAVIS-MONTHAN AIR FORCE BASE
NAS    - NAVAL AIR STATION
         EL CENTRO NAS IS EL CENTRO NAVAL AIR STATION
N/A    - NOT AVAILABLE



USA.gov is the U.S. government's official web portal to all federal, state and local government web resources and services.